This is the latest recevied weather packets stored in our database for station/object AA7VG. If no packets are shown the sender has not sent any weather packets the latest 10 day(s).
| Time | Temp. | Humidity | Pressure | Rain* | Wind** | Luminosity | Snow |
|---|---|---|---|---|---|---|---|
| 1777257058 | 2.22° C | 73% | 1011 hPa | 0 mm | - | - | - |
| 1777256756 | 2.22° C | 73% | 1011 hPa | 0 mm | - | - | - |
| 1777256451 | 2.22° C | 71% | 1010.7 hPa | 0 mm | - | - | - |
| 1777256147 | 2.22° C | 72% | 1011 hPa | 0 mm | - | - | - |
| 1777255844 | 2.22° C | 71% | 1010.7 hPa | 0 mm | - | - | - |
| 1777255539 | 2.22° C | 71% | 1010.9 hPa | 0 mm | - | - | - |
| 1777255237 | 2.22° C | 70% | 1010.7 hPa | 0 mm | - | - | - |
| 1777254932 | 2.22° C | 72% | 1010.6 hPa | 0 mm | - | - | - |
| 1777254630 | 2.22° C | 72% | 1010.5 hPa | 0 mm | - | - | - |
| 1777254326 | 2.22° C | 73% | 1010.5 hPa | 0 mm | - | - | - |
| 1777254021 | 2.78° C | 71% | 1010.3 hPa | 0 mm | - | - | - |
| 1777253719 | 2.78° C | 69% | 1010.3 hPa | 0 mm | - | - | - |
| 1777253416 | 2.78° C | 69% | 1010.5 hPa | 0 mm | - | - | - |
| 1777253113 | 2.78° C | 64% | 1010.4 hPa | 0 mm | - | - | - |
| 1777252811 | 2.78° C | 65% | 1010.4 hPa | 0 mm | - | - | - |
| 1777252508 | 2.78° C | 69% | 1010.3 hPa | 0 mm | - | - | - |
| 1777252205 | 2.78° C | 69% | 1010.1 hPa | 0 mm | - | - | - |
| 1777251903 | 2.78° C | 71% | 1010.2 hPa | 0 mm | - | - | - |
| 1777251600 | 2.78° C | 70% | 1010.1 hPa | 0 mm | - | - | - |
| 1777251296 | 3.33° C | 68% | 1009.9 hPa | 0 mm | - | - | - |
| 1777250992 | 3.33° C | 65% | 1010.2 hPa | 0 mm | - | - | - |
| 1777250689 | 3.33° C | 65% | 1009.9 hPa | 0 mm | - | - | - |
| 1777250385 | 3.33° C | 69% | 1010.1 hPa | 0 mm | - | - | - |
| 1777250085 | 3.33° C | 65% | 1009.7 hPa | 0 mm | - | - | - |
| 1777249782 | 3.33° C | 68% | 1009.6 hPa | 0 mm | - | - | - |
* Rain latest hour (hover to see other rain measurements)
** Current wind speed in m/s (hover to see current wind gust speed)